Погода в Братолюбовке

Поиск расширенной информации на нашем сайте:

Полезная информация:

Новости сайта



02.01.2020
Опубликован Долгосрочный прогноз погоды по городам России и ближнего зарубежья на январь 2020 года.
Карты: Прогноз на январь и февраль 2020 года, Сравнение прогнозируемой аномалии приземной температуры воздуха на январь 2020 года по разным моделям.




Погода в Братолюбовке - сегодня

Время (UTC), дата Ветер
(°,м/с) 
Видим.   Явления Облачность Т
(°С)
Тd
(°С)
f(%) Тe
(°С)
Pmin
(гПа)
dP
(гПа)
Po
(мм)
O2
(г/м3)
Тmin Tmax R s Состояние
почвы
21 29.11.20 250 (З) 20000 м    10/0 верхняя 
[Cs]
-17.9 -20.8 78 -18  1024.8  -0.3  745  323           
00 30.11.20 260 (З) 20000 м    10/0 средняя 
[As op]
-16.9 -20 77 -19  1025.5  0.7  746  322  -19.6      равномерный
сухой снег
100% 
03 30.11.20 280 (З) 10 км    10/0 средняя 
[Ac trans]
-14 -17.9 72 -16  1024.8  -0.2  746  318           
06 30.11.20 270 (З) 4000 м    10/0 средняя 
[As trans]
-14.3 -17.6 76 -18  1025.6  0.8  746  319           
09 30.11.20 270 (З) 10 км  слаб. снег  3/0 средняя 
[Ac und]
-17.6 -19.8 83 -20  1027.9  1.9  748  324           
12 30.11.20 240 (ЮЗ) 20000 м  {снег}  ясно 
-19.3 -21.7 81 -20  1028.9  0.7  748  326    -13.6  0.0     
15 30.11.20 240 (ЮЗ) 20000 м    4/0 верхняя 
[Cs]
-20.5 -23 80 -21  1029  -0.1  748  328           
18 30.11.20 270 (З) 20000 м    ясно 
-19.4 -22.7 75 -22  1029.1  0.2  748  326           
21 30.11.20 230 (ЮЗ) 20000 м    ясно 
-21.1 -23.6 80 -21  1029.6  0.4  749  329           
00 01.12.20 230 (ЮЗ) 20000 м    ясно 
-19.9 -22.9 77 -20  1030.2  0.7  749  327  -21.3      равномерный
сухой снег
100% 
03 01.12.20 260 (З) 20000 м    ясно 
-14.1 -19.4 64 -16  1029.3  -0.2  749  320           
06 01.12.20 260 (З) 20000 м    ясно 
-12.5 -19.1 58 -16  1028.5  -0.6  749  318           
09 01.12.20 220 (ЮЗ) 20000 м    1/0 средняя 
[Ac lent]
-16 -20.1 71 -16  1028.9  749  322           
12 01.12.20 210 (ЮЗ) 20000 м    ясно 
-16.4 -20.1 73 -17  1028.1  -0.9  748  322    -14.1       
15 01.12.20 190 (Ю) 20000 м    9/0 средняя 
[Ac trans]
-20.4 -22.3 85 -21  1028  -0.5  747  327           
18 01.12.20 220 (ЮЗ) 20000 м    8/0 средняя 
[Ac trans]
-21.6 -24.3 79 -22  1027.7  -0.4  747  329           
21 01.12.20 тихо ()   20000 м    ясно 
-22.7 -25.5 78 -23  1027.3  -0.6  747  330           
00 02.12.20 240 (ЮЗ) 10 км  дымка  1/0 верхняя 
[Ci fib]
-20.3 -22.7 81 -21  1026.7  -0.3  746  327  -23.4      равномерный
сухой снег
100% 
03 02.12.20 270 (З) 20000 м    6/0 верхняя 
[Ci sp]
-14 -19.9 61 -18  1025  -0.8  746  318           
06 02.12.20 260 (З) 20000 м    3/0 средняя, верхняя 
[Ac lent|Ci fib]
-12.9 -19.1 60 -16  1023.8  -1.1  745  317           
09 02.12.20 230 (ЮЗ) 20000 м    10/0 средняя 
[As op]
-14.8 -19.2 69 -17  1023.9  -0.2  745  319           
12 02.12.20 220 (ЮЗ) 20000 м    10/0 верхняя 
[Cc]
-16 -19.7 73 -16  1023.3  -0.7  744  320    -12.4       
15 02.12.20 240 (ЮЗ) 20000 м    10/0 верхняя 
[Cs]
-16.3 -20.2 72 -16  1022.2  -1.1  744  320           
18 02.12.20 230 (ЮЗ) 20000 м    10/0 верхняя 
[Cs]
-15.4 -18.6 76 -15  1020.8  -1.2  743  319           
21 02.12.20 230 (ЮЗ) 20000 м  {снег}  ясно 
-17.6 -19.9 82 -18  1020.2  -0.9  742  321           
Время (UTC), дата Ветер
(°,м/с) 
Видим.   Явления Облачность Т
(°С)
Тd
(°С)
f(%) Тe
(°С)
Pmin
(гПа)
dP
(гПа)
Po
(мм)
O2
(г/м3)
Тmin Tmax R s Состояние
почвы

Для получения пояснительной информации подведите курсор к названию столбца.

ПОГОДА в Братолюбовке - архив

Всё, что Вы хотите узнать о погоде в Братолюбовке - удобно и подробно!

Выберите нужную дату (начиная с 1 января 2019* года) и нажмите кнопку "Найти".
Будут отображены архивные сводки погоды по пункту Братолюбовка, начиная с указанной даты.


Отображать данные в формате CSV (для использования в таблицах Excel)


Внимание! Наш архив погоды предназначен исключительно для личного некоммерческого использования в познавательных целях. Если Вам необходимы официальные справки о состоянии погоды (для производственных, юридических, коммерческих и т.п. целей), обращайтесь в органы Росгидромета.

*Примечание: данная дата относится к архиву по метеостанциям СССР (Россия, СНГ, Балтия).
Архив по метеостанциям Зарубежной Европы и Азии (кроме Китая) хранится 10 дней, по другим регионам земного шара (Китай, Африка, Америка, Австралия, Океания) - 1 день.

Братолюбовка - район местоположения метеостанции


Название, широта, долгота, высота метеостанции:
Братолюбовка 50.8°ш. 129.3°д. 227 м над ур. моря [Российская Федерация]

Дополнительная информация

В oтличие oт бoльшинства пoгoдных сайтoв мы публикуем пoдрoбную метеoинфoрмацию в детальнoм прoфессиoнальнoм фoрмате.

Характеристики температуры и влажнoсти вoздуха измеряются на высoте 2 м в тени вдали oт зданий и деревьев.
Скoрoсть ветра измеряется на высoте 10 м (на урoвне рoста челoвека скoрoсть ветра ниже в 1.5-2 раза). Если метеoстанция нахoдится в гoрoде или в лесу, тo скoрoсть ветра занижена на 2-4 м/с пo сравнению с oткрытым местoм. Скoрoсть ветра над акватoриями крупных рек и oзёр, а также на вершинах хoлмoв на 2-5 м/с выше, чем в oбычных услoвиях.
Атмoсфернoе давление в разных тoчках местнoсти мoжет значительнo oтличаться oт давления на метеoстанции, в зависимoсти oт услoвий рельефа (при пoдъёме на 10 м давление пoнижается примернo на 1 мм рт.ст.).